Weather Roundup
Issued by NWS

Home | Current Version | Previous Version | Graphics & Text | Print | Product List | Glossary Off
Versions: 1 2 3 4 5 6 7 8 9 10 11 12 13 14 15 16 17 18 19 20 21 22 23 24 25 26 27 28 29 30 31 32 33 34 35 36 37 38 39 40 41 42 43 44 45 46 47 48 49 50

000
NZUS93 KARX 240010
HRRWXR

CURRENT HOURLY OBSERVATIONS ACROSS
MUCH OF THE UPPER MISSISSIPPI VALLEY
NATIONAL WEATHER SERVICE LA CROSSE WI
700 PM CDT SAT JUL 23 2016


...SOUTHEAST MINNESOTA...


CITY           SKY/WX    TMP DP  RH WIND       PRES   REMARKS
ROCHESTER      PTSUNNY   75  70  84 S12G20    29.83F
ROCHESTER/MAYO FAIR      75  71  86 SE12G24   29.83F
WINONA         CLOUDY    73  68  83 SE5       29.82F
AUSTIN         MOSUNNY   75  70  83 SE9       29.81F
ALBERT LEA     CLOUDY    79  72  78 S8        29.82S
DODGE CENTER   MOSUNNY   77  70  78 SE9       29.84S
PRESTON        CLOUDY    74  68  82 SE8       29.85F
OWATONNA       CLOUDY    79  70  73 SE10      29.81F
FARIBAULT      SUNNY     81  72  74 SE7       29.82S
$$

...ELSEWHERE IN MINNESOTA...


CITY           SKY/WX    TMP DP  RH WIND       PRES   REMARKS
MINNEAPOLIS    MOSUNNY   75  70  84 SE12      29.80F
INTNL FALLS    CLOUDY    76  65  68 SE10      29.77S
DULUTH         PTSUNNY   71  64  78 SE8       29.86F
RED WING       CLOUDY    77  70  78 SE3       29.82F
REDWOOD FALLS  PTSUNNY   84  76  76 SE9       29.73F HX  93
MANKATO        SUNNY     81  72  74 SE15      29.79S
WORTHINGTON    MOSUNNY   84  77  79 S14       29.78S HX  94
FAIRMONT       MOSUNNY   84  75  74 SE12      29.76F HX  92
$$

...SOUTHWEST WISCONSIN...


CITY           SKY/WX    TMP DP  RH WIND       PRES   REMARKS
LA CROSSE      CLOUDY    75  69  81 SE9       29.82F
PRAIRIE DU CHI CLOUDY    70  69  96 E9        29.87F
BOSCOBEL       LGT RAIN  72  70  93 CALM      29.89F
LONE ROCK      LGT RAIN  71  70  96 SE8       29.92F
PLATTEVILLE    CLOUDY    70  70 100 E10       29.94S
FORT MC COY    CLOUDY    70  67  90 SE7       29.86F
CAMP DOUGLAS   CLOUDY    70  69  96 SE12      29.88F
MAUSTON-NEW LI LGT RAIN  70  69  97 SE7       29.88F
VIROQUA        MOCLDY    68  68 100 SE12      29.88F
WIS DELLS      TSTM      72  70  94 SE5       29.92F
$$

...ELSEWHERE IN WISCONSIN...


CITY           SKY/WX    TMP DP  RH WIND       PRES   REMARKS
MILWAUKEE      CLOUDY    76  72  87 S8        29.93F
MADISON        TSTM      71  70  96 N7        29.92F
GREEN BAY      CLOUDY    78  71  79 S7        29.90F
EAU CLAIRE     LGT RAIN  71  70  96 E3        29.85F FOG
BLACK RVR FLS  FAIR      72  72  98 S3        29.84F
MEDFORD        CLOUDY    69  69 100 CALM      29.91R
WAUSAU         CLOUDY    72  67  84 S9        29.90S
WIS RAPIDS     LGT RAIN  70  66  87 S9        29.89F
MARSHFIELD     CLOUDY    70  66  87 SE6       29.89F
RICE LAKE      CLOUDY    72  69  91 SE10      29.87S
$$

...NORTHEAST IOWA...


CITY           SKY/WX    TMP DP  RH WIND       PRES   REMARKS
WATERLOO       MOSUNNY   78  73  84 SE8       29.82F
DUBUQUE        LGT RAIN  71  70  96 SE12      29.92F
DECORAH        CLOUDY    72  72 100 SE9G17    29.84F
MASON CITY     CLOUDY    79  73  82 S9        29.83F
CHARLES CITY   CLOUDY    75  73  94 SE12G17   29.83F
OELWEIN        CLOUDY    75  72  88 SE13      29.85F
$$

...ELSEWHERE IN IOWA...


CITY           SKY/WX    TMP DP  RH WIND       PRES   REMARKS
DES MOINES     MOSUNNY   90  77  65 S10       29.81S HX 103
IOWA CITY      CLOUDY    87  80  79 SE6       29.86F HX 103
FORT DODGE     CLOUDY    86  79  79 S7        29.80F HX  99
MARSHALLTOWN   SUNNY     87  82  85 SE6       29.82F HX 106
CEDAR RAPIDS   CLOUDY    77  75  93 E13       29.85F
$$

...NORTHERN ILLINOIS...


CITY           SKY/WX    TMP DP  RH WIND       PRES   REMARKS
CHICAGO-OHARE  TSTM      73  71  93 NE20G26   29.96R FOG
CHICAGO-MIDWAY CLOUDY    81  69  67 N21G30    29.97R THUNDER
MOLINE         CLOUDY    87  79  76 SE6       29.88R HX 101
ROCKFORD       CLOUDY    74  71  91 SE8       29.91F
PEORIA         MOSUNNY   88  79  74 S9        29.89F HX 103
$$

NOTE: "FAIR" INDICATES FEW OR NO CLOUDS BELOW 12,000 FEET WITH NO
SIGNIFICANT WEATHER AND/OR OBSTRUCTIONS TO VISIBILITY. WIND
SPEEDS ARE IN MILES-PER-HOUR.




USA.gov is the U.S. government's official web portal to all federal, state and local government web resources and services.